EZY87VF LMML-EGGD

Flight info

Callsign EZY87VF
Flight time 3h 11m
Altitude 36000
Route GZO M622 SOPIR DCT MABOX DCT ADEXI DCT RUGOX DCT MADKA DCT AJO DCT OMEDA DCT MERLU DCT PIGOS DCT BARSO DCT OKTET DCT GIPNO DCT BULOL DCT IDAVO DCT BAGBI DCT SIZZA DCT LAULY DCT BRY DCT CLM DCT KOPOR DCT KESAX DCT KUNAV T421 ICTAM L179 SAWPE
Aircraft A320/M-SDE2E3FGHIJ1RWXYZ/LB1

Departure

Time 2026-05-04 14:57
Airport Malta International Airport (LMML)

Arrival

Time 2026-05-04 18:08
Airport Bristol Airport (EGGD)
Time Latitude Longitude Altitude Speed Heading
2026-05-04 14:33 35.84956 14.49336 305 ft 0 kts 359°
2026-05-04 14:44 35.84949 14.49336 305 ft 2 kts 359°
2026-05-04 14:44 35.84935 14.49336 306 ft 2 kts 359°
2026-05-04 14:44 35.84919 14.49337 306 ft 2 kts 359°
2026-05-04 14:44 35.84908 14.49337 305 ft 1 kts 359°
2026-05-04 14:45 35.84893 14.49338 306 ft 2 kts 345°
2026-05-04 14:45 35.84879 14.49345 306 ft 2 kts 332°
2026-05-04 14:45 35.84866 14.49355 306 ft 1 kts 319°
2026-05-04 14:45 35.84861 14.49361 306 ft 1 kts 315°
2026-05-04 14:47 35.84867 14.49354 305 ft 2 kts 316°
2026-05-04 14:47 35.84885 14.49333 305 ft 4 kts 316°
2026-05-04 14:48 35.84911 14.49298 305 ft 6 kts 306°
2026-05-04 14:48 35.84936 14.49240 305 ft 8 kts 291°
2026-05-04 14:48 35.84923 14.49165 305 ft 10 kts 235°
2026-05-04 14:48 35.84919 14.49077 305 ft 11 kts 302°
2026-05-04 14:49 35.84974 14.48991 305 ft 13 kts 297°
2026-05-04 14:49 35.84999 14.48883 305 ft 11 kts 280°
2026-05-04 14:49 35.85003 14.48862 305 ft 0 kts 282°
2026-05-04 14:50 35.85006 14.48846 305 ft 12 kts 283°
2026-05-04 14:50 35.85032 14.48734 305 ft 13 kts 286°
2026-05-04 14:50 35.85067 14.48620 305 ft 16 kts 302°
2026-05-04 14:50 35.85153 14.48494 305 ft 18 kts 311°
2026-05-04 14:51 35.85247 14.48379 305 ft 18 kts 314°
2026-05-04 14:51 35.85339 14.48260 305 ft 20 kts 313°
2026-05-04 14:51 35.85445 14.48128 305 ft 21 kts 318°
2026-05-04 14:51 35.85581 14.48057 305 ft 20 kts 343°
2026-05-04 14:52 35.85660 14.47954 305 ft 15 kts 261°
2026-05-04 14:52 35.85605 14.47932 305 ft 5 kts 134°
2026-05-04 14:52 35.85604 14.47933 305 ft 0 kts 134°
2026-05-04 14:56 35.85591 14.47949 305 ft 18 kts 134°
2026-05-04 14:56 35.85303 14.48297 306 ft 91 kts 134°
2026-05-04 14:56 35.84700 14.49045 306 ft 149 kts 134°
2026-05-04 14:56 35.83888 14.50074 626 ft 168 kts 137°
2026-05-04 14:57 35.82988 14.51066 1211 ft 170 kts 155°
2026-05-04 14:57 35.81850 14.51200 1865 ft 167 kts 200°
2026-05-04 14:57 35.80936 14.50246 2408 ft 181 kts 238°
2026-05-04 14:57 35.80733 14.48619 2826 ft 206 kts 281°
2026-05-04 14:58 35.81582 14.47038 3293 ft 230 kts 314°
2026-05-04 14:58 35.82905 14.45690 3717 ft 254 kts 319°
2026-05-04 14:58 35.84375 14.44309 4389 ft 266 kts 319°
2026-05-04 14:58 35.85885 14.42885 5331 ft 267 kts 319°
2026-05-04 14:59 35.87350 14.41481 6335 ft 265 kts 318°
2026-05-04 14:59 35.88841 14.40039 7135 ft 271 kts 317°
2026-05-04 14:59 35.91851 14.37083 8990 ft 270 kts 319°
2026-05-04 15:00 35.93321 14.35636 9944 ft 267 kts 319°
2026-05-04 15:00 35.94804 14.34174 10747 ft 270 kts 320°
2026-05-04 15:00 35.96369 14.32635 11168 ft 287 kts 321°
2026-05-04 15:01 35.99754 14.29309 11814 ft 323 kts 321°
2026-05-04 15:01 36.01609 14.27486 12164 ft 338 kts 321°
2026-05-04 15:01 36.03498 14.25626 12817 ft 342 kts 322°
2026-05-04 15:01 36.05391 14.23760 13578 ft 344 kts 322°
2026-05-04 15:02 36.07305 14.21871 14285 ft 346 kts 322°
2026-05-04 15:02 36.09250 14.19949 14976 ft 348 kts 322°
2026-05-04 15:02 36.11179 14.18044 15654 ft 351 kts 322°
2026-05-04 15:02 36.13142 14.16114 16287 ft 354 kts 322°
2026-05-04 15:03 36.15127 14.14159 16734 ft 362 kts 322°
2026-05-04 15:03 36.17188 14.12123 17319 ft 366 kts 322°
2026-05-04 15:03 36.19204 14.10126 17941 ft 367 kts 322°
2026-05-04 15:03 36.21252 14.08095 18537 ft 370 kts 322°
2026-05-04 15:04 36.23336 14.06026 19119 ft 372 kts 323°
2026-05-04 15:04 36.25387 14.03987 19672 ft 375 kts 323°
2026-05-04 15:04 36.27480 14.01905 20227 ft 377 kts 323°
2026-05-04 15:04 36.29575 13.99819 20762 ft 379 kts 323°
2026-05-04 15:05 36.31676 13.97724 21278 ft 381 kts 323°
2026-05-04 15:05 36.33802 13.95605 21788 ft 383 kts 323°
2026-05-04 15:05 36.35937 13.93473 22287 ft 385 kts 323°
2026-05-04 15:05 36.38059 13.91353 22746 ft 388 kts 323°
2026-05-04 15:06 36.40224 13.89189 23210 ft 390 kts 323°
2026-05-04 15:06 36.42395 13.87017 23660 ft 392 kts 323°
2026-05-04 15:06 36.44560 13.84848 24090 ft 394 kts 324°
2026-05-04 15:07 36.48935 13.80464 24903 ft 398 kts 324°
2026-05-04 15:07 36.51188 13.78339 25275 ft 399 kts 327°
2026-05-04 15:07 36.53483 13.76267 25653 ft 401 kts 327°
2026-05-04 15:07 36.55823 13.74165 26007 ft 403 kts 327°
2026-05-04 15:08 36.58147 13.72079 26344 ft 405 kts 327°
2026-05-04 15:08 36.60472 13.69989 26656 ft 406 kts 327°
2026-05-04 15:08 36.62840 13.67859 26953 ft 408 kts 327°
2026-05-04 15:08 36.65190 13.65743 27245 ft 409 kts 327°
2026-05-04 15:09 36.67553 13.63615 27630 ft 408 kts 327°
2026-05-04 15:09 36.69901 13.61496 28046 ft 406 kts 327°
2026-05-04 15:09 36.72230 13.59393 28441 ft 405 kts 328°
2026-05-04 15:10 36.76899 13.55175 29206 ft 402 kts 328°
2026-05-04 15:10 36.79192 13.53102 29587 ft 400 kts 328°
2026-05-04 15:10 36.83837 13.48966 30327 ft 397 kts 329°
2026-05-04 15:11 36.86158 13.46964 30668 ft 396 kts 329°
2026-05-04 15:11 36.88445 13.44994 30999 ft 395 kts 330°
2026-05-04 15:11 36.90722 13.43027 31320 ft 394 kts 330°
2026-05-04 15:11 36.93033 13.41028 31641 ft 392 kts 330°
2026-05-04 15:12 36.95309 13.39053 31960 ft 391 kts 330°
2026-05-04 15:12 36.97570 13.37091 32260 ft 390 kts 330°
2026-05-04 15:12 36.99851 13.35109 32551 ft 389 kts 330°
2026-05-04 15:12 37.02106 13.33139 32827 ft 388 kts 329°
2026-05-04 15:13 37.04343 13.31175 33085 ft 387 kts 329°
2026-05-04 15:13 37.06616 13.29180 33344 ft 387 kts 329°
2026-05-04 15:13 37.08825 13.27245 33601 ft 385 kts 329°
2026-05-04 15:13 37.11033 13.25314 33857 ft 384 kts 329°
2026-05-04 15:14 37.13259 13.23377 34122 ft 383 kts 329°
2026-05-04 15:14 37.15507 13.21420 34378 ft 382 kts 329°
2026-05-04 15:14 37.17722 13.19485 34565 ft 383 kts 329°
2026-05-04 15:14 37.19946 13.17543 34714 ft 384 kts 329°
2026-05-04 15:15 37.22201 13.15570 34850 ft 386 kts 329°
2026-05-04 15:15 37.24455 13.13599 34987 ft 387 kts 329°
2026-05-04 15:15 37.26691 13.11638 35125 ft 388 kts 329°
2026-05-04 15:16 37.31186 13.07689 35353 ft 391 kts 328°
2026-05-04 15:16 37.33456 13.05693 35472 ft 392 kts 328°
2026-05-04 15:16 37.38006 13.01685 35664 ft 395 kts 328°
2026-05-04 15:17 37.40312 12.99651 35757 ft 396 kts 328°
2026-05-04 15:17 37.44859 12.95638 35919 ft 399 kts 328°
2026-05-04 15:17 37.47112 12.93646 36008 ft 399 kts 328°
2026-05-04 15:18 37.51733 12.89554 36105 ft 401 kts 328°
2026-05-04 15:19 37.58699 12.83375 36112 ft 401 kts 328°
2026-05-04 15:19 37.65501 12.77329 36113 ft 401 kts 328°
2026-05-04 15:20 37.70152 12.73188 36113 ft 401 kts 328°
2026-05-04 15:20 37.74795 12.69046 36114 ft 401 kts 328°
2026-05-04 15:21 37.77470 12.66657 36113 ft 401 kts 328°
2026-05-04 15:22 37.80453 12.64053 36070 ft 410 kts 319°
2026-05-04 15:22 37.87705 12.57495 36113 ft 428 kts 319°
2026-05-04 15:23 37.92747 12.52950 36118 ft 441 kts 319°
2026-05-04 15:23 37.97940 12.48276 36118 ft 453 kts 320°
2026-05-04 15:24 38.03222 12.43520 36118 ft 465 kts 320°
2026-05-04 15:24 38.08688 12.38587 36118 ft 476 kts 320°
2026-05-04 15:25 38.14142 12.33677 36113 ft 480 kts 319°
2026-05-04 15:26 38.22408 12.26191 36114 ft 480 kts 319°
2026-05-04 15:26 38.30762 12.18597 36113 ft 480 kts 319°
2026-05-04 15:27 38.39111 12.11059 36113 ft 481 kts 320°
2026-05-04 15:28 38.47545 12.03619 36114 ft 481 kts 320°
2026-05-04 15:29 38.56002 11.96111 36114 ft 481 kts 320°
2026-05-04 15:30 38.75687 11.78520 36113 ft 481 kts 320°
2026-05-04 15:31 38.84144 11.70924 36114 ft 481 kts 320°
2026-05-04 15:32 38.97822 11.58593 36114 ft 481 kts 320°
2026-05-04 15:34 39.11859 11.45873 36112 ft 493 kts 320°
2026-05-04 15:34 39.20542 11.38019 36115 ft 502 kts 320°
2026-05-04 15:35 39.25124 11.33797 36815 ft 446 kts 326°
2026-05-04 15:35 39.27558 11.31547 38068 ft 408 kts 326°
2026-05-04 15:35 39.29887 11.29419 38437 ft 401 kts 327°
2026-05-04 15:36 39.34580 11.25149 38182 ft 401 kts 327°
2026-05-04 15:36 39.39212 11.20916 38120 ft 401 kts 327°
2026-05-04 15:37 39.43836 11.16678 38099 ft 401 kts 326°
2026-05-04 15:37 39.48512 11.12381 38082 ft 401 kts 326°
2026-05-04 15:38 39.53124 11.08135 38068 ft 401 kts 326°
2026-05-04 15:38 39.57777 11.03843 38053 ft 401 kts 326°
2026-05-04 15:39 39.62425 10.99552 38040 ft 402 kts 326°
2026-05-04 15:40 39.69408 10.93090 38033 ft 404 kts 326°
2026-05-04 15:40 39.74084 10.88752 38031 ft 406 kts 325°
2026-05-04 15:41 39.78739 10.84425 38031 ft 407 kts 325°
2026-05-04 15:41 39.83452 10.80037 38031 ft 409 kts 324°
2026-05-04 15:42 39.88189 10.75616 38032 ft 410 kts 324°
2026-05-04 15:42 39.92920 10.71193 38032 ft 410 kts 324°
2026-05-04 15:43 39.97644 10.66770 38032 ft 410 kts 324°
2026-05-04 15:43 40.02371 10.62338 38032 ft 410 kts 324°
2026-05-04 15:44 40.07076 10.57919 38031 ft 410 kts 324°
2026-05-04 15:44 40.11766 10.53512 38033 ft 410 kts 325°
2026-05-04 15:45 40.16491 10.49086 38032 ft 410 kts 325°
2026-05-04 15:45 40.21238 10.44619 38032 ft 410 kts 324°
2026-05-04 15:46 40.25942 10.40176 38032 ft 410 kts 324°
2026-05-04 15:46 40.30664 10.35705 38032 ft 410 kts 324°
2026-05-04 15:47 40.35323 10.31263 38032 ft 410 kts 324°
2026-05-04 15:47 40.40015 10.26780 38032 ft 410 kts 324°
2026-05-04 15:48 40.44687 10.22321 38032 ft 410 kts 324°
2026-05-04 15:48 40.51737 10.15587 38032 ft 410 kts 324°
2026-05-04 15:49 40.56410 10.11115 38032 ft 410 kts 324°
2026-05-04 15:49 40.61091 10.06629 38032 ft 410 kts 324°
2026-05-04 15:50 40.65772 10.02135 38032 ft 410 kts 324°
2026-05-04 15:50 40.70454 9.97633 38032 ft 410 kts 324°
2026-05-04 15:51 40.75095 9.93162 38032 ft 410 kts 324°
2026-05-04 15:51 40.79754 9.88666 38032 ft 410 kts 324°
2026-05-04 15:52 40.84442 9.84133 38032 ft 410 kts 324°
2026-05-04 15:52 40.89079 9.79642 38032 ft 410 kts 324°
2026-05-04 15:53 40.93724 9.75135 38032 ft 410 kts 324°
2026-05-04 15:53 40.98386 9.70604 38031 ft 410 kts 324°
2026-05-04 15:54 41.03052 9.66063 38031 ft 411 kts 324°
2026-05-04 15:54 41.07747 9.61484 38031 ft 413 kts 323°
2026-05-04 15:55 41.12384 9.56961 38031 ft 414 kts 323°
2026-05-04 15:55 41.17069 9.52401 38031 ft 415 kts 323°
2026-05-04 15:56 41.21744 9.47827 38028 ft 415 kts 323°
2026-05-04 15:56 41.26427 9.43229 38021 ft 415 kts 323°
2026-05-04 15:57 41.31074 9.38657 38011 ft 415 kts 323°
2026-05-04 15:57 41.35704 9.34090 38001 ft 415 kts 323°
2026-05-04 15:58 41.40317 9.29505 37992 ft 415 kts 323°
2026-05-04 15:58 41.44917 9.24936 37988 ft 415 kts 323°
2026-05-04 15:59 41.49523 9.20362 37986 ft 415 kts 323°
2026-05-04 15:59 41.54109 9.15805 37984 ft 415 kts 323°
2026-05-04 16:00 41.58685 9.11250 37984 ft 415 kts 323°
2026-05-04 16:00 41.63235 9.06714 37985 ft 414 kts 323°
2026-05-04 16:01 41.67800 9.02155 37985 ft 412 kts 323°
2026-05-04 16:01 41.72368 8.97584 37985 ft 410 kts 323°
2026-05-04 16:02 41.76768 8.93174 37985 ft 408 kts 323°
2026-05-04 16:03 41.83611 8.86299 37984 ft 405 kts 322°
2026-05-04 16:03 41.88121 8.81756 37984 ft 404 kts 322°
2026-05-04 16:04 41.92697 8.77138 37984 ft 404 kts 322°
2026-05-04 16:04 41.99478 8.70279 37984 ft 404 kts 322°
2026-05-04 16:05 42.04029 8.65666 37984 ft 404 kts 322°
2026-05-04 16:06 42.10616 8.58976 37986 ft 404 kts 323°
2026-05-04 16:07 42.19632 8.49828 37997 ft 404 kts 322°
2026-05-04 16:08 42.28551 8.40701 38018 ft 404 kts 322°
2026-05-04 16:09 42.40451 8.30577 38029 ft 405 kts 329°
2026-05-04 16:10 42.50198 8.23246 38030 ft 405 kts 329°
2026-05-04 16:11 42.60032 8.15842 38030 ft 405 kts 329°
2026-05-04 16:12 42.74694 8.04758 38030 ft 405 kts 329°
2026-05-04 16:13 42.84495 7.97314 38030 ft 405 kts 329°
2026-05-04 16:14 42.94209 7.89916 38028 ft 408 kts 329°
2026-05-04 16:16 43.06647 7.80392 38029 ft 416 kts 328°
2026-05-04 16:17 43.19178 7.70648 38030 ft 417 kts 327°
2026-05-04 16:18 43.29112 7.62715 38030 ft 417 kts 327°
2026-05-04 16:19 43.41547 7.52742 38030 ft 417 kts 327°
2026-05-04 16:20 43.54004 7.42704 38030 ft 417 kts 327°
2026-05-04 16:22 43.66432 7.32626 38031 ft 417 kts 326°
2026-05-04 16:23 43.81307 7.20472 38030 ft 417 kts 326°
2026-05-04 16:25 43.96151 7.08316 38027 ft 411 kts 326°
2026-05-04 16:26 44.12870 6.94548 38031 ft 401 kts 326°
2026-05-04 16:28 44.24844 6.84659 38027 ft 400 kts 326°
2026-05-04 16:29 44.41448 6.70823 38022 ft 401 kts 326°
2026-05-04 16:31 44.53326 6.60866 38044 ft 401 kts 326°
2026-05-04 16:32 44.67495 6.48925 38064 ft 401 kts 326°
2026-05-04 16:33 44.76844 6.41007 38047 ft 400 kts 326°
2026-05-04 16:34 44.83835 6.35068 38016 ft 400 kts 326°
2026-05-04 16:35 44.97763 6.23132 37986 ft 400 kts 325°
2026-05-04 16:36 45.04832 6.17072 37981 ft 407 kts 325°
2026-05-04 16:37 45.11916 6.10984 37980 ft 414 kts 325°
2026-05-04 16:38 45.21766 6.02525 37985 ft 423 kts 325°
2026-05-04 16:39 45.34283 5.91689 37984 ft 426 kts 325°
2026-05-04 16:40 45.43442 5.83717 37984 ft 426 kts 325°
2026-05-04 16:41 45.55978 5.72754 37984 ft 426 kts 325°
2026-05-04 16:43 45.68490 5.61752 37984 ft 426 kts 325°
2026-05-04 16:43 45.75970 5.55147 37984 ft 426 kts 325°
2026-05-04 16:45 45.90986 5.41825 37986 ft 426 kts 325°
2026-05-04 16:46 46.03409 5.30715 37995 ft 426 kts 324°
2026-05-04 16:47 46.13287 5.21845 38000 ft 426 kts 324°
2026-05-04 16:48 46.23162 5.12984 38002 ft 426 kts 324°
2026-05-04 16:49 46.33115 5.03986 38002 ft 426 kts 324°
2026-05-04 16:50 46.43079 4.94944 38002 ft 419 kts 323°
2026-05-04 16:51 46.50441 4.88233 37995 ft 413 kts 322°
2026-05-04 16:52 46.60098 4.79392 37984 ft 406 kts 321°
2026-05-04 16:53 46.67229 4.72827 37975 ft 404 kts 321°
2026-05-04 16:54 46.76850 4.64555 37956 ft 407 kts 324°
2026-05-04 16:55 46.89417 4.53339 37959 ft 405 kts 322°
2026-05-04 16:56 47.01571 4.42382 37942 ft 415 kts 322°
2026-05-04 16:57 47.09081 4.35593 37936 ft 422 kts 322°
2026-05-04 16:58 47.18962 4.26640 37936 ft 424 kts 322°
2026-05-04 17:00 47.33992 4.12941 37935 ft 424 kts 322°
2026-05-04 17:01 47.46548 4.01418 37925 ft 424 kts 322°
2026-05-04 17:02 47.56539 3.92203 37921 ft 424 kts 322°
2026-05-04 17:03 47.64035 3.85262 37921 ft 424 kts 322°
2026-05-04 17:03 47.71525 3.78301 37921 ft 424 kts 322°
2026-05-04 17:04 47.81524 3.68973 37921 ft 424 kts 322°
2026-05-04 17:05 47.91506 3.59616 37920 ft 424 kts 322°
2026-05-04 17:06 47.98932 3.52628 37920 ft 424 kts 322°
2026-05-04 17:07 48.05584 3.46347 37920 ft 424 kts 322°
2026-05-04 17:07 48.11371 3.40872 37921 ft 424 kts 322°
2026-05-04 17:08 48.18771 3.33884 37924 ft 424 kts 321°
2026-05-04 17:09 48.23696 3.29179 37924 ft 424 kts 321°
2026-05-04 17:09 48.28613 3.24473 37931 ft 424 kts 321°
2026-05-04 17:10 48.40958 3.12633 37956 ft 424 kts 321°
2026-05-04 17:11 48.45855 3.07919 37967 ft 424 kts 321°
2026-05-04 17:12 48.53266 3.00767 37976 ft 425 kts 321°
2026-05-04 17:13 48.65764 2.88645 37982 ft 428 kts 320°
2026-05-04 17:14 48.75676 2.78974 37982 ft 429 kts 320°
2026-05-04 17:15 48.83086 2.71719 37982 ft 429 kts 320°
2026-05-04 17:16 48.92999 2.61971 37965 ft 429 kts 320°
2026-05-04 17:17 49.02914 2.52195 37948 ft 425 kts 319°
2026-05-04 17:18 49.12645 2.42562 37957 ft 416 kts 316°
2026-05-04 17:19 49.22200 2.33045 37965 ft 413 kts 315°
2026-05-04 17:20 49.31758 2.23428 37958 ft 413 kts 315°
2026-05-04 17:20 49.38902 2.16231 37966 ft 413 kts 315°
2026-05-04 17:21 49.48401 2.06630 37978 ft 413 kts 315°
2026-05-04 17:22 49.53114 2.01850 37980 ft 413 kts 315°
2026-05-04 17:23 49.62573 1.92223 37982 ft 413 kts 315°
2026-05-04 17:24 49.69586 1.85056 37982 ft 413 kts 315°
2026-05-04 17:25 49.79012 1.75384 37982 ft 413 kts 315°
2026-05-04 17:26 49.88512 1.65588 37982 ft 413 kts 315°
2026-05-04 17:27 50.00395 1.53268 37976 ft 413 kts 315°
2026-05-04 17:28 50.09899 1.43359 37976 ft 413 kts 315°
2026-05-04 17:29 50.24062 1.28550 37982 ft 412 kts 315°
2026-05-04 17:31 50.35981 1.15954 37982 ft 413 kts 315°
2026-05-04 17:32 50.47921 1.03271 37980 ft 416 kts 314°
2026-05-04 17:33 50.57556 0.92976 37978 ft 419 kts 314°
2026-05-04 17:34 50.67075 0.82754 37977 ft 419 kts 314°
2026-05-04 17:35 50.79062 0.69813 37977 ft 419 kts 314°
2026-05-04 17:36 50.83868 0.64600 37977 ft 419 kts 314°
2026-05-04 17:36 50.88675 0.59373 37977 ft 419 kts 314°
2026-05-04 17:37 50.93194 0.54406 37977 ft 414 kts 311°
2026-05-04 17:37 50.97696 0.48844 37978 ft 407 kts 308°
2026-05-04 17:38 51.02066 0.43284 37978 ft 403 kts 308°
2026-05-04 17:38 51.06435 0.37716 37979 ft 400 kts 307°
2026-05-04 17:39 51.12837 0.29541 37986 ft 399 kts 307°
2026-05-04 17:39 51.17115 0.24086 37993 ft 399 kts 307°
2026-05-04 17:40 51.21380 0.18616 37997 ft 399 kts 307°
2026-05-04 17:40 51.25646 0.13102 37998 ft 396 kts 305°
2026-05-04 17:41 51.29386 0.07064 38001 ft 380 kts 296°
2026-05-04 17:41 51.32349 0.00351 38002 ft 367 kts 289°
2026-05-04 17:42 51.34545 -0.06823 38002 ft 356 kts 282°
2026-05-04 17:42 51.36008 -0.14146 38000 ft 351 kts 277°
2026-05-04 17:43 51.37295 -0.21646 37994 ft 350 kts 277°
2026-05-04 17:43 51.38553 -0.29099 37988 ft 350 kts 277°
2026-05-04 17:44 51.39816 -0.36658 37987 ft 350 kts 277°
2026-05-04 17:44 51.41067 -0.44199 37990 ft 350 kts 277°
2026-05-04 17:45 51.42312 -0.51748 37995 ft 350 kts 277°
2026-05-04 17:45 51.43550 -0.59299 37998 ft 350 kts 277°
2026-05-04 17:46 51.44758 -0.66684 37700 ft 344 kts 276°
2026-05-04 17:46 51.45361 -0.70389 37096 ft 344 kts 276°
2026-05-04 17:46 51.45956 -0.74067 36314 ft 347 kts 276°
2026-05-04 17:47 51.46563 -0.77826 35508 ft 346 kts 276°
2026-05-04 17:47 51.47161 -0.81517 34397 ft 345 kts 276°
2026-05-04 17:47 51.47768 -0.85290 32913 ft 351 kts 276°
2026-05-04 17:47 51.48358 -0.88997 31245 ft 357 kts 277°
2026-05-04 17:48 51.48983 -0.92915 30115 ft 357 kts 277°
2026-05-04 17:48 51.49606 -0.96808 29508 ft 363 kts 277°
2026-05-04 17:48 51.50022 -0.99404 29011 ft 363 kts 277°
2026-05-04 17:48 51.50866 -1.04680 27911 ft 364 kts 277°
2026-05-04 17:49 51.51495 -1.08632 27042 ft 368 kts 278°
2026-05-04 17:49 51.52136 -1.12686 26130 ft 373 kts 278°
2026-05-04 17:49 51.52731 -1.16722 25326 ft 374 kts 276°
2026-05-04 17:49 51.53236 -1.20782 24784 ft 369 kts 275°
2026-05-04 17:50 51.53726 -1.24842 24249 ft 366 kts 275°
2026-05-04 17:50 51.54205 -1.28851 23722 ft 362 kts 275°
2026-05-04 17:50 51.54669 -1.32771 23209 ft 359 kts 276°
2026-05-04 17:50 51.55125 -1.36629 22698 ft 357 kts 276°
2026-05-04 17:51 51.55586 -1.40557 22146 ft 355 kts 276°
2026-05-04 17:51 51.56030 -1.44354 21579 ft 354 kts 276°
2026-05-04 17:51 51.56483 -1.48236 20999 ft 353 kts 276°
2026-05-04 17:51 51.56930 -1.52083 20426 ft 352 kts 276°
2026-05-04 17:52 51.57391 -1.56002 19850 ft 363 kts 276°
2026-05-04 17:52 51.57852 -1.59928 19280 ft 364 kts 277°
2026-05-04 17:52 51.58302 -1.63793 18716 ft 363 kts 277°
2026-05-04 17:52 51.58755 -1.67762 18114 ft 361 kts 276°
2026-05-04 17:53 51.59191 -1.71664 17519 ft 359 kts 276°
2026-05-04 17:53 51.59616 -1.75542 16926 ft 357 kts 276°
2026-05-04 17:53 51.60031 -1.79384 16335 ft 356 kts 276°
2026-05-04 17:53 51.60437 -1.83207 15745 ft 354 kts 276°
2026-05-04 17:54 51.60836 -1.87032 15150 ft 351 kts 276°
2026-05-04 17:54 51.61219 -1.90755 14567 ft 348 kts 276°
2026-05-04 17:54 51.61616 -1.94671 13949 ft 345 kts 276°
2026-05-04 17:54 51.61988 -1.98408 13354 ft 343 kts 276°
2026-05-04 17:55 51.62363 -2.02251 12738 ft 340 kts 276°
2026-05-04 17:55 51.62717 -2.05934 12146 ft 338 kts 276°
2026-05-04 17:55 51.63071 -2.09734 11533 ft 336 kts 276°
2026-05-04 17:55 51.63386 -2.13429 10935 ft 334 kts 276°
2026-05-04 17:56 51.63663 -2.17147 10328 ft 332 kts 274°
2026-05-04 17:56 51.63474 -2.20816 9719 ft 332 kts 259°
2026-05-04 17:56 51.62843 -2.24375 9120 ft 331 kts 255°
2026-05-04 17:56 51.62106 -2.27922 8509 ft 330 kts 254°
2026-05-04 17:57 51.61357 -2.31370 8101 ft 323 kts 254°
2026-05-04 17:57 51.60610 -2.34723 7996 ft 307 kts 254°
2026-05-04 17:57 51.59885 -2.37913 7986 ft 288 kts 254°
2026-05-04 17:57 51.59216 -2.40806 7981 ft 272 kts 254°
2026-05-04 17:58 51.58554 -2.43620 7985 ft 264 kts 254°
2026-05-04 17:58 51.57888 -2.46437 7986 ft 265 kts 254°
2026-05-04 17:58 51.57225 -2.49232 7986 ft 265 kts 254°
2026-05-04 17:58 51.56556 -2.52048 7987 ft 265 kts 254°
2026-05-04 17:59 51.55888 -2.54847 7987 ft 266 kts 254°
2026-05-04 17:59 51.55223 -2.57634 7696 ft 268 kts 254°
2026-05-04 17:59 51.53867 -2.63285 6845 ft 269 kts 254°
2026-05-04 18:00 51.53189 -2.66107 6416 ft 270 kts 253°
2026-05-04 18:00 51.52525 -2.68892 5995 ft 272 kts 253°
2026-05-04 18:00 51.51841 -2.71791 5559 ft 273 kts 253°
2026-05-04 18:00 51.51172 -2.74660 5130 ft 274 kts 253°
2026-05-04 18:01 51.50500 -2.77584 4698 ft 275 kts 253°
2026-05-04 18:01 51.49846 -2.80468 4495 ft 266 kts 253°
2026-05-04 18:01 51.49214 -2.83248 4487 ft 250 kts 253°
2026-05-04 18:02 51.48044 -2.88315 4471 ft 224 kts 253°
2026-05-04 18:02 51.47507 -2.90595 4463 ft 208 kts 253°
2026-05-04 18:02 51.46989 -2.92754 4466 ft 199 kts 253°
2026-05-04 18:02 51.46238 -2.94716 4454 ft 203 kts 212°
2026-05-04 18:03 51.45067 -2.95718 4486 ft 184 kts 193°
2026-05-04 18:03 51.43837 -2.96302 4449 ft 183 kts 189°
2026-05-04 18:03 51.42545 -2.96820 3967 ft 193 kts 188°
2026-05-04 18:03 51.41190 -2.97335 3432 ft 199 kts 188°
2026-05-04 18:04 51.39802 -2.97747 2890 ft 200 kts 174°
2026-05-04 18:04 51.38540 -2.97051 2540 ft 185 kts 139°
2026-05-04 18:04 51.37374 -2.93872 2473 ft 161 kts 87°
2026-05-04 18:05 51.37427 -2.92180 2505 ft 140 kts 80°
2026-05-04 18:05 51.37532 -2.90623 2510 ft 139 kts 80°
2026-05-04 18:05 51.37619 -2.89068 2491 ft 140 kts 81°
2026-05-04 18:05 51.37686 -2.87488 2336 ft 141 kts 82°
2026-05-04 18:06 51.37799 -2.84307 1955 ft 140 kts 83°
2026-05-04 18:06 51.37855 -2.82747 1770 ft 139 kts 83°
2026-05-04 18:06 51.37913 -2.81178 1584 ft 139 kts 83°
2026-05-04 18:07 51.37968 -2.79626 1394 ft 138 kts 84°
2026-05-04 18:07 51.38031 -2.78069 1197 ft 138 kts 83°
2026-05-04 18:07 51.38105 -2.76515 1024 ft 137 kts 84°
2026-05-04 18:07 51.38159 -2.74982 852 ft 134 kts 85°
2026-05-04 18:08 51.38208 -2.73491 652 ft 132 kts 84°
2026-05-04 18:08 51.38264 -2.72076 609 ft 99 kts 85°
2026-05-04 18:08 51.38292 -2.71332 603 ft 47 kts 85°
2026-05-04 18:08 51.38311 -2.70912 603 ft 27 kts 84°
2026-05-04 18:09 51.38398 -2.70719 603 ft 3 kts 10°
2026-05-04 18:09 51.38465 -2.70737 601 ft 7 kts 306°
2026-05-04 18:10 51.38467 -2.70834 600 ft 9 kts 266°
2026-05-04 18:10 51.38464 -2.70941 600 ft 9 kts 266°
2026-05-04 18:10 51.38498 -2.71016 599 ft 10 kts 353°
2026-05-04 18:10 51.38547 -2.71021 597 ft 0 kts 356°